Hourly Data Report for December 12, 2018

EUREKA CLIMATE
NUNAVUT
Current Station Operator: ECCC - MSC

79°59'21.000" N
85°56'02.000" W
10.00 m
2401199
71613
NEK

Download Data

Hourly Data (December 2018)
Hourly Data Report for December 12, 2018
TIME
LST
Temp Definition
°C
Dew Point Definition
°C
Rel Hum Definition
%
Precip. Amount Definition
mm

Wind Dir Definition
10's deg

Wind Spd Definition
km/h
Visibility Definition
km
Stn Press Definition
kPa
Hmdx Definition


Wind Chill Definition


Weather Definition


00:00 -16.9 -18.2 89 0.0 1 18   98.80   -26 LegendNANA
01:00 -17.1 -18.5 89 0.0 36 20   98.77   -27 LegendNANA
02:00 -16.9 -18.4 89 0.0 1 26   98.73   -28 LegendNANA
03:00 -16.6 -18.1 88 0.0 1 23   98.71   -27 LegendNANA
04:00 -17.2 -18.7 88 0.0 35 17   98.72   -26 LegendNANA
05:00 -16.5 -18.0 89 0.0 30 9   98.71   -23 LegendNANA
06:00 -17.2 -18.7 88 0.0 31 15   98.69   -26 LegendNANA
07:00 -18.2 -19.8 88 0.0 35 16   98.64   -27 LegendNANA
08:00 -17.7 -19.4 87 0.0 1 20   98.62   -28 LegendNANA
09:00 -17.9 -19.7 86 0.0 1 26   98.60   -29 LegendNANA
10:00 -16.5 -18.2 87 0.0 36 24   98.61   -27 LegendNANA
11:00 -16.5 -18.2 87 0.0 36 24   98.62   -27 LegendNANA
12:00 -16.8 -18.2 89 0.0 2 16   98.65   -25 LegendNANA
13:00 -17.4 -18.8 89 0.2 30 11   98.68   -25 LegendNANA
14:00 -17.6 -19.1 89 0.0 28 12   98.72   -25 LegendNANA
15:00 -18.3 -19.7 88 0.2 33 6   98.74   -23 LegendNANA
16:00 -19.1 -20.8 87 0.0 36 17   98.78   -29 LegendNANA
17:00 -19.2 -21.0 86 0.0 36 19   98.82   -29 LegendNANA
18:00 -18.8 -20.4 87 0.0 2 10   98.83   -26 LegendNANA
19:00 -18.9 -20.5 87 0.0 36 11   98.87   -26 LegendNANA
20:00 -19.5 -21.2 86 0.2 1 13   98.89   -28 LegendNANA
21:00 -19.8 -21.6 86 0.0 35 13   98.95   -28 LegendNANA
22:00 -21.6 -23.6 84 0.0 34 18   98.97   -32 LegendNANA
23:00 -21.9 -23.9 84 0.0 35 19   99.02   -33 LegendNANA

Notes on Data Quality.

Legend

  • E = Estimated
  • M = Missing
  • NA = Not Available*
  • [empty] = Indicates an unobserved value
Date modified: